Hourly Weather Roundup
Issued by NWS Central Illinois

Home | Current Version | Previous Version | Text Only | Print | Product List | Glossary On
Versions: 1 2 3 4 5 6 7 8 9 10 11 12 13 14 15 16 17 18 19 20 21 22 23 24 25 26 27 28 29 30 31 32 33 34 35 36 37 38 39 40 41 42 43 44 45 46 47 48 49 50
000
NZUS43 KILX 242310
HWRILX

AREA WEATHER ROUNDUP
NATIONAL WEATHER SERVICE, LINCOLN IL
600 PM CDT WED AUG 24 2016


CITY           SKY/WX    TMP DP  RH WIND       PRES   REMARKS
BLOOMINGTON    SUNNY     84  71  65 W10G17    30.00S HX  89
CHAMPAIGN      MOSUNNY   83  75  77 SW7       30.00S HX  90
DANVILLE       CLOUDY    83  76  78 W8        29.97R HX  91
DECATUR        CLOUDY    87  74  64 SW9       30.00S HX  95
EFFINGHAM      MOSUNNY   87  78  74 S5        30.03S HX 100
FLORA          SUNNY     89  78  71 SW10      30.02F HX 103
GALESBURG      CLOUDY    81  72  73 SW5       29.98F HX  85
JACKSONVILLE   SUNNY     86  74  68 SW7       29.99S HX  94
LACON          SUNNY     83  70  65 W7        29.97R HX  86
LAWRENCEVILLE  MOSUNNY   88  77  69 SW13      30.02S HX 100
LITCHFIELD     MOSUNNY   89  73  59 W5        30.01S HX  97
$$


CITY           SKY/WX    TMP DP  RH WIND       PRES   REMARKS
LINCOLN        SUNNY     87  75  67 SW5       29.99S HX  96
MACOMB         CLOUDY    82  75  78 SW3       30.01R HX  89
MATTOON        CLOUDY    85  75  72 SW7       30.01S HX  93
MT CARMEL AP   PTSUNNY   86  76  70 SW8       30.03S HX  96
OLNEY-NOBLE AP MOSUNNY   88  79  74 S6        30.02F HX 102
PARIS          CLOUDY    85  77  78 SW7       30.01S HX  96
PEORIA         MOSUNNY   84  72  67 W6        29.98S HX  89
PONTIAC        MOSUNNY   84  73  70 W9        29.98S HX  90
RANTOUL        CLOUDY    85  75  72 W7        29.99S HX  93
ROBINSON       MOSUNNY   84  78  82 SW7       30.03S HX  95
SPRINGFIELD    MOSUNNY   88  75  65 SW7       29.99F HX  97
TAYLORVILLE    CLOUDY    85  76  74 SW6       30.00F HX  94
$$

...REGIONAL REPORTS...


CITY           SKY/WX    TMP DP  RH WIND       PRES   REMARKS
CHICAGO O`HARE MOSUNNY   83  70  64 W12       29.92S HX  87
KANKAKEE       SUNNY     83  71  67 W8        29.96S HX  87
MOLINE         CLOUDY    84  71  65 SW6       29.95S HX  89
MOUNT STERLING PTSUNNY   85  75  72 SW5       29.99S HX  92
MOUNT VERNON   SUNNY     90  75  62 SW10      30.03S HX 100
PITTSFIELD     SUNNY     88  74  64 SW7       30.01S HX  97
QUINCY         MOSUNNY   87  75  67 W7        29.98F HX  96
ROCKFORD       MOSUNNY   84  73  69 W9        29.95R HX  90
$$


CITY           SKY/WX    TMP DP  RH WIND       PRES   REMARKS
BURLINGTON     CLOUDY    82  75  79 W3        29.97F HX  89
CEDAR RAPIDS   CLOUDY    79  74  84 NW8       29.96R HX  82
DES MOINES     TSTM      77  73  87 S3        29.98R FOG
KIRKSVILLE     MOSUNNY   81  74  79 SW6       30.00F HX  86
OTTUMWA        MOSUNNY   81  72  74 CALM      29.94F HX  85
ST LOUIS       PTSUNNY   93  72  50 SW8       30.00F HX 101
$$


CITY           SKY/WX    TMP DP  RH WIND       PRES   REMARKS
TERRE HAUTE    MOSUNNY   87  75  67 SW12      30.01S HX  96
EVANSVILLE     SUNNY     88  72  58 SW16      30.05S HX  94
INDIANAPOLIS   CLOUDY    83  75  77 S13       30.01F HX  90
LAFAYETTE      PTSUNNY   81  77  88 W7        29.96R HX  88
MADISON        PTSUNNY   82  73  74 CALM      29.91S HX  87
MILWAUKEE      CLOUDY    86  70  58 W12       29.91R HX  90
$$





USA.gov is the U.S. government's official web portal to all federal, state and local government web resources and services.